Location: Unspecified
(0.0000°N, 0.0000°E)
Time: 20:37:35
(UTC+00:00)

USA 200 - Pass Details

Date: 10 June 2023
Orbit: 1801 x 38554 km, 63.7° (Epoch: 28 February)

Event Time Altitude Azimuth Distance (km) Brightness Sun altitude
Rises 15:09:02 0° 228° (SW) 7,785 ? 38.5°
Reaches altitude 10° 15:12:35 10° 235° (SW) 7,621 ? 37.8°
Maximum altitude 02:17:29 67° 260° (W) 7,052 ? -49.3°
Enters shadow 02:19:24 67° 247° (WSW) 6,631 ? -48.9°
Exits shadow 02:38:43 - 170° (S) 6,196 ? -45.0°
Sets 02:39:04 0° 170° (S) 6,273 ? -44.9°
